Wind_Speed
6 5 3 2 1 4 5 6 7 8 6 2 3 5 5 4 3 3 3 4 6 7 7 7 9 9 10 11 11 11 10 10 9 10 11 9 6 4 2 1 4 6 7 8 10 11 11 11 11
5 4 3 2 2 5 7 7 7 8 6 3 3 5 6 4 3 3 3 4 6 7 8 8 10 11 12 12 11 10 10 10 11 11 10 8 5 4 2 3 6 8 10 10 11 12 13 12 12
3 2 3 3 5 6 7 8 7 6 6 6 5 4 6 6 3 3 3 3 5 8 9 10 12 13 13 13 13 11 10 10 11 11 9 7 6 5 5 6 8 11 12 12 12 13 13 14 13
2 3 4 5 5 6 8 9 7 5 5 6 7 6 6 6 4 3 1 3 6 8 10 10 12 13 13 14 13 12 11 10 10 10 7 6 6 5 4 6 9 12 14 14 14 14 14 14 14
4 6 8 6 6 10 12 13 12 9 6 6 7 8 7 5 4 3 3 4 7 9 10 10 11 12 14 14 14 14 13 11 10 9 7 6 5 4 3 3 6 11 14 15 15 15 15 14 14
5 7 7 5 9 12 14 15 15 15 11 8 7 8 8 7 5 5 5 6 8 10 11 11 12 13 14 15 15 15 15 14 12 10 8 6 5 5 4 4 5 9 12 14 15 16 16 15 15
6 8 9 11 12 12 14 15 15 17 15 12 9 9 10 8 7 6 6 7 8 11 14 14 15 15 16 16 17 17 17 16 14 11 9 8 8 7 7 5 5 7 10 13 15 16 16 15 15
10 10 11 11 12 13 14 16 17 16 15 14 11 10 11 10 7 7 7 8 10 13 16 17 18 18 18 18 19 19 19 18 15 12 10 9 10 9 8 7 6 7 9 11 14 16 17 16 16
14 14 12 10 12 14 15 17 18 18 17 15 12 10 10 9 7 6 6 9 12 15 18 20 21 21 20 20 21 21 21 20 17 14 11 11 10 9 7 6 6 6 7 9 11 14 16 17 17
18 17 14 12 13 15 16 18 20 19 17 15 12 9 7 4 3 5 7 9 12 16 19 21 23 23 22 22 22 21 21 20 18 16 13 11 10 7 5 5 6 6 6 7 9 11 14 16 17
21 20 17 14 16 16 18 20 21 20 17 14 10 7 3 1 3 7 10 13 15 17 19 21 22 22 22 21 21 21 21 21 19 16 13 10 8 6 4 5 6 6 6 6 7 10 12 15 16
23 23 19 16 18 17 19 20 21 19 16 12 8 6 3 4 6 10 13 16 19 21 21 21 22 22 21 21 21 21 21 21 19 16 13 9 7 6 5 5 6 7 7 7 7 9 11 12 14
25 24 20 20 20 18 20 21 19 17 15 11 9 6 4 5 7 11 14 17 20 23 24 22 21 23 22 20 19 20 20 20 18 15 13 8 6 6 6 7 7 8 7 7 7 7 9 10 11
26 24 23 23 23 19 19 20 18 15 14 13 12 10 9 9 11 14 16 19 23 25 26 24 22 24 25 21 18 17 18 18 16 15 12 9 7 7 8 8 9 9 8 7 7 7 7 7 8
28 28 26 25 24 21 18 21 19 14 13 13 14 14 13 13 15 18 20 23 25 25 25 23 24 26 25 23 18 15 14 15 14 13 11 9 8 8 9 9 10 10 9 8 8 7 7 6 6
29 27 25 25 25 23 20 20 20 17 15 13 13 14 15 15 18 20 22 25 25 25 24 20 22 24 24 24 21 14 13 13 12 11 9 8 9 10 10 11 11 12 11 10 10 10 9 8 6
30 27 25 25 26 25 23 21 17 18 17 14 14 14 14 15 19 21 24 26 26 25 23 21 21 22 22 21 19 15 13 12 12 11 10 10 10 12 13 13 13 15 14 12 12 12 9 9 7
30 28 26 26 26 24 23 21 17 18 18 16 15 15 16 17 18 20 24 26 26 25 23 21 19 19 18 17 17 14 13 12 12 13 12 12 13 14 16 15 15 16 16 15 14 12 10 10 8
30 27 25 23 23 23 22 21 19 20 19 17 15 16 18 19 18 21 24 25 26 25 22 19 17 16 16 16 16 15 14 13 13 14 14 15 16 17 19 18 17 17 17 17 16 14 12 11 10
27 25 23 21 21 22 21 19 19 21 19 16 14 16 18 20 20 21 23 24 25 23 21 19 18 17 17 16 15 16 16 15 15 15 16 17 17 19 22 21 20 19 18 18 18 17 15 12 9
26 23 21 20 21 23 23 19 20 20 18 14 13 14 16 19 20 21 22 23 23 22 21 20 20 19 19 18 18 17 17 17 17 17 17 18 19 21 24 24 23 22 20 19 20 19 18 15 12
23 23 22 21 22 22 23 20 19 21 18 13 12 12 14 17 20 22 22 23 22 21 20 21 21 22 21 20 19 17 18 18 18 17 17 18 21 23 25 26 26 25 24 21 21 21 20 18 15
23 22 23 22 23 22 22 22 18 20 17 15 13 13 15 18 21 23 24 24 22 21 21 22 23 23 23 22 20 19 18 18 17 16 17 19 22 25 27 27 26 26 26 23 22 23 22 20 18
23 23 22 22 22 21 21 23 19 20 18 17 14 16 19 20 21 22 24 24 23 22 23 23 24 24 23 23 22 21 20 19 17 16 16 18 22 25 27 29 27 26 26 25 24 24 23 21 20
21 21 21 21 22 20 21 23 20 20 20 18 17 18 21 22 23 23 22 23 23 23 23 23 22 21 21 21 21 21 21 20 18 16 15 17 21 25 27 28 28 26 25 25 24 24 24 22 21
22 21 21 21 22 22 22 22 20 21 21 21 20 20 22 24 26 26 25 24 23 21 21 19 19 19 19 19 19 20 20 19 18 18 18 18 20 24 27 27 29 29 26 25 25 25 25 25 24
22 22 22 24 25 26 25 24 23 23 23 23 22 22 24 25 26 26 25 25 21 17 16 15 15 16 17 17 18 18 18 18 18 18 18 19 21 24 26 27 27 29 29 27 27 26 26 25 26
21 21 22 25 26 27 25 23 24 25 25 24 22 23 24 23 23 23 23 22 18 15 13 14 15 16 16 16 17 17 17 17 18 18 18 19 21 24 26 28 28 28 27 27 26 26 25 25 26
21 21 23 25 26 26 25 23 23 25 26 25 23 24 25 23 22 21 20 19 17 15 14 14 15 16 16 16 17 17 17 18 18 18 19 19 21 24 26 28 29 28 27 26 26 25 24 24 24
24 23 24 24 25 26 27 25 20 24 26 25 24 25 26 25 22 21 20 18 16 15 15 15 16 17 17 17 18 18 19 19 18 18 19 21 22 25 27 27 27 27 26 26 26 24 24 23 23
Wind_Direction
155 154 151 194 1 330 325 331 327 306 284 262 279 281 276 275 277 255 286 332 346 349 354 356 353 345 336 328 323 320 320 325 323 323 326 328 332 338 353 154 149 160 180 199 210 214 215 215 216
142 147 152 185 341 343 341 343 336 319 299 277 277 286 295 302 286 258 279 322 348 358 1 4 358 348 338 329 322 317 314 314 318 322 326 325 320 307 264 228 206 197 196 200 210 216 217 216 216
146 172 186 238 311 343 351 349 338 329 310 300 302 301 305 309 286 258 273 333 358 3 4 9 3 352 339 329 322 314 306 306 312 321 328 329 315 295 251 231 218 212 209 207 210 214 217 217 215
217 264 264 270 309 331 348 350 344 339 325 302 303 308 305 308 306 288 303 5 3 3 0 5 1 349 338 328 320 311 301 301 307 317 331 335 324 303 264 237 222 217 215 215 214 216 218 217 215
253 277 279 270 312 332 344 349 348 348 331 314 305 302 302 303 303 311 331 355 3 1 358 354 347 341 335 327 317 309 302 298 300 304 313 321 323 312 283 255 224 219 220 221 222 221 220 217 214
257 292 288 286 329 338 343 345 342 337 334 325 310 295 299 301 299 307 326 341 355 359 357 346 333 327 325 321 314 306 300 296 293 293 298 303 308 305 295 273 224 217 219 222 223 223 223 218 215
264 283 296 325 340 342 340 337 334 332 331 326 319 296 294 296 293 299 314 329 344 353 353 346 333 322 315 310 307 304 301 297 294 293 302 307 308 298 284 265 231 219 220 223 224 225 225 221 220
261 273 293 324 339 333 333 332 330 330 326 322 316 299 293 294 292 293 312 331 346 352 349 345 334 322 312 308 304 300 299 300 298 295 301 310 316 305 282 254 234 223 221 225 228 227 227 228 228
260 269 288 310 321 319 328 330 329 331 327 323 320 303 294 292 296 308 331 344 347 348 343 339 334 325 315 309 306 303 301 301 298 292 293 307 317 310 282 247 228 219 219 225 230 230 230 232 233
257 264 276 293 298 308 323 326 327 328 325 320 319 311 308 301 325 348 352 352 345 341 335 330 326 323 319 314 309 305 305 305 299 289 287 300 312 309 284 238 217 215 220 226 232 235 235 234 235
258 262 268 277 285 302 315 321 324 323 322 319 317 308 300 6 6 352 350 348 341 335 328 321 317 317 316 316 314 309 308 307 302 289 284 293 304 300 279 243 220 219 222 226 235 242 241 236 234
258 263 269 271 281 294 307 317 321 318 317 315 306 297 307 341 348 345 346 340 334 331 326 317 311 311 312 314 317 314 311 307 303 293 284 285 288 282 271 249 229 222 221 225 237 248 250 240 232
256 265 266 270 276 286 299 313 317 315 313 305 291 282 298 320 332 337 335 332 330 328 328 320 308 306 307 310 315 315 311 306 302 295 287 278 272 266 265 255 234 221 221 229 241 250 259 251 239
256 262 265 266 271 277 292 305 309 310 307 301 293 286 286 300 319 325 326 329 332 330 328 321 314 308 305 306 309 312 310 305 300 298 290 270 249 248 253 249 234 221 218 224 231 240 257 258 247
254 256 262 267 273 278 288 298 302 301 295 296 298 298 300 309 315 319 324 330 332 329 325 317 309 308 305 304 303 305 302 300 298 298 290 267 238 238 246 244 231 219 216 218 222 225 242 251 247
255 254 259 267 273 279 283 292 297 296 290 289 293 299 307 315 317 320 325 329 331 327 321 309 299 300 301 302 300 296 293 298 297 289 280 264 239 236 240 239 227 218 218 214 216 227 238 243 246
253 256 259 266 273 278 279 283 286 286 286 286 289 295 302 310 318 321 325 327 328 324 316 303 292 292 296 298 297 290 294 293 292 283 272 260 242 235 235 235 226 220 219 212 214 225 235 239 241
249 252 257 264 269 271 276 284 287 282 284 287 294 300 303 309 319 322 324 324 323 318 308 299 291 290 295 295 295 288 295 293 291 281 270 260 248 236 231 229 226 219 214 211 214 223 232 235 240
247 252 257 261 263 266 273 283 286 281 281 286 296 298 301 309 321 321 321 319 317 313 304 294 289 291 296 294 300 292 299 296 292 280 266 257 252 237 228 226 225 221 215 212 215 219 224 235 242
245 251 253 252 260 267 274 279 277 278 281 289 293 295 304 313 321 318 315 313 311 307 299 290 288 292 298 294 297 297 295 290 288 278 262 255 249 235 226 224 223 222 217 214 216 218 223 232 246
245 246 245 249 260 269 274 271 269 274 279 283 285 296 310 314 311 309 307 306 304 298 292 288 287 290 293 292 293 293 292 290 288 280 260 249 241 231 225 221 220 220 220 218 218 219 224 233 246
240 243 248 256 264 269 271 268 266 274 278 280 287 302 307 303 302 303 303 300 296 291 288 287 287 289 290 289 288 289 290 290 288 283 259 244 234 225 220 221 223 221 218 218 219 222 227 235 246
244 248 255 259 263 264 265 268 266 277 283 283 289 297 299 301 305 304 302 297 290 285 284 286 287 287 287 287 286 286 288 290 291 282 258 239 230 223 216 218 222 219 216 217 222 227 231 238 247
250 253 255 257 260 260 259 267 269 276 276 279 289 296 301 306 306 302 299 295 290 285 284 286 286 285 283 282 283 283 286 288 287 280 254 237 225 220 215 215 218 220 222 222 224 230 235 240 246
247 249 250 252 254 252 255 263 268 270 276 284 293 295 299 306 306 302 298 297 294 291 289 287 286 284 282 281 281 281 282 284 283 276 257 236 226 220 218 219 220 224 228 227 229 233 238 242 245
244 247 247 250 251 249 249 254 261 265 274 283 289 292 300 306 305 301 296 295 295 291 288 287 286 284 283 282 281 280 278 279 277 271 260 246 236 225 219 220 223 227 231 233 236 239 243 245 247
238 241 243 245 249 251 249 251 257 266 273 280 286 293 297 298 299 294 290 291 290 286 287 288 287 285 283 281 280 278 276 274 269 265 257 248 240 231 226 227 227 230 234 237 242 244 245 246 248
238 240 241 243 247 252 255 259 263 267 272 278 283 288 292 293 297 292 285 284 283 281 286 292 293 290 285 281 277 275 273 271 265 260 255 251 242 238 235 232 231 232 233 234 238 242 245 246 247
242 247 250 251 253 256 260 262 265 267 270 274 280 287 292 297 302 299 288 280 277 277 286 294 298 296 291 284 277 274 272 270 267 259 252 250 247 242 239 236 234 233 232 234 236 239 241 244 243
251 255 258 259 261 262 264 264 260 262 267 273 281 287 292 297 303 302 295 284 277 278 286 294 298 299 295 288 281 276 272 271 268 262 256 253 255 247 241 240 238 236 234 235 236 238 240 242 239
Height
5901 5901 5902 5902 5903 5902 5901 5900 5898 5896 5897 5898 5898 5896 5894 5894 5895 5896 5893 5890 5889 5888 5887 5886 5886 5884 5883 5882 5881 5880 5880 5879 5879 5878 5877 5875 5874 5873 5873 5872 5872 5872 5873 5875 5876 5877 5878 5879 5880
5902 5902 5902 5902 5901 5901 5900 5899 5897 5896 5896 5897 5897 5895 5893 5893 5893 5892 5890 5889 5888 5887 5886 5885 5885 5883 5882 5881 5880 5879 5879 5878 5877 5877 5875 5874 5873 5873 5872 5872 5872 5873 5873 5874 5875 5876 5877 5878 5880
5902 5902 5902 5901 5901 5900 5899 5898 5897 5896 5896 5895 5895 5894 5893 5892 5891 5890 5889 5888 5887 5887 5885 5884 5884 5882 5881 5880 5879 5878 5877 5876 5876 5875 5874 5873 5872 5871 5871 5871 5871 5872 5873 5873 5874 5875 5876 5877 5879
5903 5902 5901 5901 5901 5899 5899 5898 5896 5896 5896 5895 5894 5893 5891 5891 5890 5889 5888 5887 5886 5886 5885 5883 5882 5881 5879 5878 5877 5876 5875 5874 5874 5873 5872 5871 5870 5869 5869 5868 5869 5870 5871 5872 5873 5873 5874 5876 5878
5902 5901 5901 5900 5900 5899 5897 5896 5895 5895 5895 5895 5893 5891 5890 5890 5889 5888 5887 5886 5885 5884 5883 5882 5881 5879 5878 5876 5875 5873 5872 5872 5871 5870 5870 5869 5868 5867 5867 5866 5866 5867 5868 5870 5871 5872 5873 5874 5876
5902 5900 5900 5900 5900 5898 5896 5895 5894 5894 5893 5893 5892 5890 5889 5889 5888 5887 5886 5884 5884 5883 5882 5880 5879 5877 5876 5874 5872 5871 5870 5869 5868 5868 5867 5867 5866 5866 5865 5865 5865 5865 5866 5867 5868 5870 5871 5873 5874
5901 5900 5899 5899 5898 5897 5896 5894 5893 5892 5890 5890 5890 5888 5887 5887 5886 5885 5884 5883 5882 5881 5880 5878 5877 5875 5874 5872 5870 5868 5866 5866 5865 5865 5865 5864 5864 5863 5863 5863 5863 5863 5864 5865 5866 5868 5869 5871 5872
5899 5899 5898 5898 5897 5896 5895 5892 5891 5890 5888 5887 5887 5886 5885 5885 5884 5883 5882 5881 5880 5879 5878 5876 5874 5873 5871 5869 5867 5865 5864 5863 5862 5862 5862 5862 5861 5860 5860 5860 5860 5861 5862 5863 5864 5865 5867 5868 5869
5898 5899 5897 5897 5896 5895 5893 5891 5889 5887 5886 5885 5884 5883 5882 5882 5882 5882 5881 5879 5878 5877 5875 5873 5871 5869 5868 5866 5864 5862 5861 5860 5859 5859 5859 5859 5858 5857 5856 5856 5857 5858 5859 5860 5861 5862 5864 5866 5867
5896 5896 5896 5897 5895 5894 5892 5890 5887 5885 5884 5883 5882 5881 5880 5880 5880 5880 5880 5878 5876 5875 5873 5870 5868 5866 5864 5863 5861 5859 5858 5857 5856 5856 5856 5856 5856 5855 5854 5854 5855 5856 5857 5857 5858 5860 5861 5863 5864
5893 5894 5895 5895 5893 5892 5890 5888 5886 5884 5882 5882 5881 5880 5879 5879 5879 5879 5878 5876 5875 5873 5871 5868 5865 5863 5861 5859 5858 5856 5855 5853 5853 5852 5853 5853 5853 5853 5853 5853 5854 5854 5855 5856 5857 5858 5859 5861 5862
5891 5891 5892 5892 5891 5890 5888 5887 5884 5882 5880 5879 5879 5879 5878 5877 5877 5876 5874 5873 5872 5870 5868 5864 5861 5858 5857 5855 5854 5853 5851 5850 5849 5849 5849 5850 5851 5851 5851 5851 5852 5853 5853 5854 5855 5856 5857 5858 5860
5888 5889 5889 5889 5888 5888 5886 5885 5882 5879 5878 5877 5877 5877 5876 5875 5874 5873 5872 5870 5868 5866 5863 5861 5858 5854 5852 5851 5850 5849 5848 5846 5846 5846 5846 5847 5848 5848 5849 5850 5850 5851 5852 5853 5853 5854 5855 5856 5858
5885 5885 5885 5885 5885 5885 5884 5882 5881 5878 5876 5875 5874 5874 5873 5872 5871 5870 5868 5866 5864 5861 5858 5855 5853 5851 5848 5846 5845 5844 5843 5842 5842 5842 5843 5844 5845 5846 5847 5847 5848 5849 5850 5851 5852 5853 5854 5855 5857
5880 5881 5881 5881 5880 5881 5881 5880 5878 5876 5874 5873 5871 5870 5869 5868 5866 5865 5864 5862 5859 5856 5854 5851 5848 5846 5844 5842 5840 5839 5839 5839 5839 5839 5840 5841 5843 5843 5845 5845 5846 5847 5848 5849 5850 5852 5853 5855 5856
5874 5875 5876 5876 5876 5876 5879 5877 5874 5872 5871 5870 5869 5867 5865 5863 5861 5860 5859 5857 5855 5851 5849 5847 5845 5843 5841 5839 5837 5835 5835 5836 5836 5836 5837 5839 5840 5841 5842 5843 5844 5844 5845 5847 5849 5851 5852 5854 5855
5869 5870 5871 5872 5872 5872 5873 5872 5871 5868 5867 5866 5866 5864 5862 5860 5858 5856 5854 5852 5850 5847 5844 5843 5841 5840 5838 5835 5834 5833 5832 5832 5832 5833 5834 5836 5837 5838 5840 5841 5842 5843 5844 5846 5848 5850 5851 5852 5854
5864 5865 5867 5868 5867 5867 5867 5866 5866 5864 5863 5862 5861 5860 5857 5856 5854 5852 5850 5848 5846 5843 5841 5839 5837 5835 5833 5832 5831 5830 5829 5829 5829 5830 5831 5832 5833 5835 5837 5838 5840 5841 5842 5844 5846 5849 5850 5851 5853
5858 5860 5862 5862 5862 5862 5862 5861 5860 5859 5859 5858 5857 5855 5853 5852 5850 5848 5846 5844 5842 5839 5837 5835 5833 5832 5830 5829 5827 5827 5826 5826 5826 5826 5827 5828 5829 5830 5833 5835 5837 5838 5840 5842 5844 5847 5849 5850 5851
5853 5855 5856 5858 5857 5857 5857 5857 5855 5855 5855 5854 5853 5850 5848 5846 5844 5843 5841 5839 5837 5835 5833 5831 5829 5828 5827 5825 5824 5823 5823 5822 5822 5822 5822 5822 5824 5826 5828 5831 5833 5836 5837 5839 5842 5844 5846 5848 5849
5848 5850 5851 5852 5852 5851 5851 5852 5851 5850 5850 5851 5849 5846 5844 5842 5840 5838 5836 5834 5832 5831 5829 5827 5825 5824 5822 5821 5820 5820 5819 5819 5818 5817 5817 5817 5819 5820 5823 5826 5829 5832 5834 5836 5838 5841 5843 5845 5847
5844 5845 5845 5846 5846 5846 5846 5846 5846 5845 5846 5846 5844 5842 5840 5839 5836 5833 5831 5829 5828 5826 5825 5823 5821 5820 5818 5817 5816 5816 5815 5814 5813 5812 5811 5812 5813 5815 5818 5821 5824 5827 5829 5832 5835 5837 5839 5841 5843
5839 5840 5840 5840 5840 5841 5840 5840 5841 5840 5841 5841 5839 5838 5837 5834 5831 5827 5825 5824 5823 5821 5820 5818 5816 5814 5813 5812 5811 5811 5810 5809 5808 5806 5806 5807 5808 5809 5812 5816 5818 5821 5824 5827 5831 5833 5835 5837 5840
5833 5834 5834 5834 5834 5836 5834 5834 5836 5835 5836 5835 5834 5833 5831 5829 5826 5823 5820 5818 5816 5816 5814 5813 5811 5809 5807 5806 5806 5805 5804 5803 5803 5802 5801 5802 5802 5804 5807 5811 5814 5817 5819 5822 5826 5829 5831 5833 5835
5828 5829 5829 5829 5829 5830 5829 5828 5830 5829 5828 5828 5828 5827 5825 5823 5821 5818 5815 5812 5811 5809 5808 5806 5804 5802 5801 5800 5800 5799 5799 5798 5798 5797 5797 5797 5798 5799 5802 5806 5809 5812 5814 5817 5821 5823 5826 5829 5831
5822 5823 5824 5825 5824 5824 5823 5823 5824 5823 5822 5822 5822 5821 5819 5817 5815 5812 5810 5808 5806 5804 5802 5800 5799 5797 5796 5795 5794 5793 5793 5792 5792 5792 5792 5793 5794 5795 5797 5800 5804 5806 5809 5811 5814 5817 5820 5823 5826
5816 5817 5817 5818 5817 5817 5817 5818 5818 5817 5816 5816 5816 5815 5814 5813 5810 5808 5805 5803 5801 5800 5798 5796 5794 5792 5791 5790 5789 5788 5788 5787 5787 5787 5788 5788 5790 5791 5793 5795 5798 5801 5803 5805 5808 5810 5813 5817 5819
5811 5811 5811 5811 5811 5811 5812 5812 5812 5811 5811 5810 5811 5810 5809 5807 5805 5802 5800 5798 5796 5795 5793 5791 5789 5788 5786 5785 5784 5783 5782 5782 5782 5782 5783 5783 5785 5786 5788 5790 5792 5795 5797 5799 5802 5804 5807 5810 5812
5806 5806 5805 5805 5806 5806 5806 5809 5807 5806 5805 5805 5805 5804 5802 5800 5798 5796 5794 5793 5791 5790 5789 5787 5785 5783 5781 5780 5779 5778 5777 5777 5776 5777 5777 5778 5780 5781 5783 5784 5787 5789 5791 5793 5796 5798 5801 5803 5806
5798 5799 5799 5800 5799 5799 5799 5803 5801 5800 5799 5799 5798 5797 5795 5793 5792 5790 5788 5787 5786 5785 5783 5782 5780 5779 5777 5776 5775 5774 5772 5772 5771 5771 5772 5773 5774 5775 5777 5778 5780 5782 5784 5787 5790 5792 5795 5797 5799